Zhongxing 19

operational
NORAD ID: 54230 Int'l Des: 2022-148 Owner: CHISAE Country: CN
HEOCIRCULARGSO

Über Zhongxing 19

Beschreibung wird geladen...

Live-Position

3D-Globus wird geladen...

Nächste Überflüge

Höhenverlauf

Altitude vs Time

uPlot chart will show altitude changes over time

Zweizeiliger Elementsatz

1 54230U 22148A 25278.49072606 -.00000078 00000-0 00000+0 0 9994
2 54230 0.0203 243.3151 0007196 343.4913 127.6629 1.00271920 10826
Epoch: 5. Okt. 2025 • Age: 11 hours

Aktueller Status

Höhe 35770.6 km
Geschwindigkeit 3.08 km/s
Subsatellitenpunkt -0.03°S, 163.3°E
Startdatum 5. Nov. 2022
Alter 2.9 years
Typ other

Technische Details

Klassifizierung Payload
Masse 5250.00 kg
Trockenmasse 2500.00 kg
Gesamtmasse 5250.00 kg
Länge 5.00 m
Durchmesser 2.50 m
Spannweite 30.00 m
Form Box + 2 Pan
Hersteller CAST
Bus-Typ DFH-4
Phasenstatus In Orbit
Besitzer/Staat CHISAE/CN

Große Konstellationen

Loading constellations...